TimeEST,TemperatureF,Dew PointF,Humidity,Sea Level PressureIn,VisibilityMPH,Wind Direction,Wind SpeedMPH,Gust SpeedMPH,PrecipitationIn,Events,Conditions,WindDirDegrees,DateUTC
12:15 AM,23.0,15.8,74,29.76,10.0,SW,3.5,-,N/A,,Mostly Cloudy,220,2013-12-16 05:15:00
12:35 AM,21.2,15.8,80,29.76,10.0,Calm,Calm,-,N/A,,Overcast,0,2013-12-16 05:35:00
12:55 AM,23.0,15.8,74,29.75,10.0,Calm,Calm,-,N/A,,Mostly Cloudy,0,2013-12-16 05:55:00
1:15 AM,23.0,15.8,74,29.75,10.0,SW,3.5,-,N/A,,Mostly Cloudy,220,2013-12-16 06:15:00
1:35 AM,24.8,17.6,74,29.76,10.0,SSW,3.5,-,N/A,,Overcast,210,2013-12-16 06:35:00
1:55 AM,23.0,15.8,74,29.76,10.0,SW,3.5,-,N/A,,Scattered Clouds,220,2013-12-16 06:55:00
2:15 AM,23.0,15.8,74,29.77,10.0,SW,4.6,-,N/A,,Clear,220,2013-12-16 07:15:00
2:35 AM,23.0,15.8,74,29.77,10.0,SW,4.6,-,N/A,,Clear,230,2013-12-16 07:35:00
2:55 AM,23.0,15.8,74,29.78,10.0,WSW,4.6,-,N/A,,Clear,240,2013-12-16 07:55:00
3:15 AM,24.8,17.6,74,29.78,10.0,WSW,9.2,-,N/A,,Clear,250,2013-12-16 08:15:00
3:35 AM,26.6,17.6,69,29.78,10.0,WSW,6.9,-,N/A,,Clear,250,2013-12-16 08:35:00
3:55 AM,26.6,17.6,69,29.79,10.0,WSW,6.9,-,N/A,,Scattered Clouds,240,2013-12-16 08:55:00
4:15 AM,26.6,17.6,69,29.80,10.0,WSW,5.8,-,N/A,,Scattered Clouds,250,2013-12-16 09:15:00
4:35 AM,26.6,17.6,69,29.81,10.0,WNW,12.7,17.3,N/A,,Mostly Cloudy,290,2013-12-16 09:35:00
4:55 AM,26.6,17.6,69,29.83,10.0,WNW,9.2,16.1,N/A,,Overcast,290,2013-12-16 09:55:00
5:15 AM,26.6,15.8,64,29.83,10.0,West,9.2,-,N/A,,Overcast,280,2013-12-16 10:15:00
5:35 AM,26.6,15.8,64,29.83,10.0,West,10.4,-,N/A,,Overcast,280,2013-12-16 10:35:00
5:55 AM,24.8,15.8,69,29.85,10.0,West,10.4,-,N/A,,Overcast,280,2013-12-16 10:55:00
6:15 AM,24.8,15.8,69,29.87,10.0,WNW,15.0,19.6,N/A,,Overcast,290,2013-12-16 11:15:00
6:35 AM,24.8,12.2,59,29.88,10.0,West,12.7,19.6,N/A,,Overcast,280,2013-12-16 11:35:00
6:55 AM,24.8,10.4,54,29.88,10.0,WNW,10.4,-,N/A,,Mostly Cloudy,290,2013-12-16 11:55:00
7:15 AM,23.0,10.4,59,29.89,10.0,West,8.1,-,N/A,,Partly Cloudy,260,2013-12-16 12:15:00
7:35 AM,23.0,8.6,54,29.90,10.0,West,11.5,16.1,N/A,,Clear,280,2013-12-16 12:35:00
7:55 AM,23.0,8.6,54,29.91,10.0,West,11.5,19.6,N/A,,Clear,280,2013-12-16 12:55:00
8:15 AM,23.0,8.6,54,29.92,10.0,West,11.5,-,N/A,,Clear,270,2013-12-16 13:15:00
8:35 AM,23.0,8.6,54,29.93,10.0,WNW,13.8,24.2,N/A,,Clear,290,2013-12-16 13:35:00
8:55 AM,23.0,8.6,54,29.95,10.0,West,15.0,19.6,N/A,,Clear,270,2013-12-16 13:55:00
9:15 AM,23.0,8.6,54,29.95,10.0,WNW,11.5,24.2,N/A,,Clear,290,2013-12-16 14:15:00
9:35 AM,24.8,8.6,50,29.96,10.0,West,11.5,25.3,N/A,,Clear,270,2013-12-16 14:35:00
9:55 AM,24.8,8.6,50,29.96,10.0,West,17.3,24.2,N/A,,Clear,280,2013-12-16 14:55:00
10:15 AM,23.0,6.8,50,29.96,10.0,West,15.0,23.0,N/A,,Clear,270,2013-12-16 15:15:00
10:35 AM,24.8,8.6,50,29.96,10.0,WNW,9.2,21.9,N/A,,Clear,290,2013-12-16 15:35:00
10:55 AM,26.6,8.6,47,29.96,10.0,WNW,11.5,20.7,N/A,,Clear,300,2013-12-16 15:55:00
11:15 AM,26.6,8.6,47,29.96,10.0,WNW,12.7,18.4,N/A,,Clear,290,2013-12-16 16:15:00
11:35 AM,26.6,8.6,47,29.96,10.0,West,12.7,20.7,N/A,,Clear,280,2013-12-16 16:35:00
11:55 AM,26.6,6.8,43,29.96,10.0,West,16.1,24.2,N/A,,Partly Cloudy,280,2013-12-16 16:55:00
12:15 PM,26.6,8.6,47,29.97,10.0,West,16.1,23.0,N/A,,Scattered Clouds,270,2013-12-16 17:15:00
12:35 PM,26.6,6.8,43,29.97,10.0,West,15.0,24.2,N/A,,Partly Cloudy,280,2013-12-16 17:35:00
12:55 PM,24.8,6.8,46,29.97,10.0,WNW,11.5,20.7,N/A,,Clear,290,2013-12-16 17:55:00
1:15 PM,26.6,6.8,43,29.97,10.0,NW,13.8,-,N/A,,Clear,310,2013-12-16 18:15:00
1:35 PM,26.6,5.0,40,29.97,10.0,West,11.5,20.7,N/A,,Clear,260,2013-12-16 18:35:00
1:55 PM,24.8,5.0,43,29.97,10.0,WNW,10.4,-,N/A,,Clear,300,2013-12-16 18:55:00
2:15 PM,26.6,6.8,43,29.98,10.0,West,10.4,-,N/A,,Scattered Clouds,280,2013-12-16 19:15:00
2:35 PM,26.6,5.0,40,29.99,10.0,West,9.2,17.3,N/A,,Mostly Cloudy,260,2013-12-16 19:35:00
2:55 PM,26.6,5.0,40,30.00,10.0,West,12.7,17.3,N/A,,Mostly Cloudy,280,2013-12-16 19:55:00
3:15 PM,26.6,3.2,37,30.02,10.0,West,11.5,16.1,N/A,,Mostly Cloudy,280,2013-12-16 20:15:00
3:35 PM,24.8,5.0,43,30.02,10.0,West,13.8,18.4,N/A,,Scattered Clouds,280,2013-12-16 20:35:00
3:55 PM,24.8,3.2,40,30.03,10.0,West,9.2,-,N/A,,Clear,280,2013-12-16 20:55:00
4:15 PM,24.8,3.2,40,30.04,10.0,West,15.0,18.4,N/A,,Clear,280,2013-12-16 21:15:00
4:35 PM,23.0,3.2,43,30.05,10.0,West,8.1,-,N/A,,Clear,270,2013-12-16 21:35:00
4:55 PM,21.2,1.4,42,30.06,10.0,West,4.6,-,N/A,,Clear,280,2013-12-16 21:55:00
5:15 PM,19.4,1.4,46,30.07,10.0,NW,5.8,-,N/A,,Clear,310,2013-12-16 22:15:00
5:35 PM,21.2,3.2,46,30.08,10.0,West,4.6,-,N/A,,Clear,280,2013-12-16 22:35:00
5:55 PM,19.4,1.4,46,30.09,10.0,West,4.6,-,N/A,,Clear,260,2013-12-16 22:55:00
6:15 PM,17.6,3.2,53,30.10,10.0,West,3.5,-,N/A,,Clear,270,2013-12-16 23:15:00
6:35 PM,17.6,3.2,53,30.11,10.0,West,4.6,-,N/A,,Clear,270,2013-12-16 23:35:00
6:55 PM,17.6,1.4,49,30.12,10.0,West,3.5,-,N/A,,Clear,260,2013-12-16 23:55:00
7:15 PM,15.8,1.4,53,30.13,10.0,Calm,Calm,-,N/A,,Clear,0,2013-12-17 00:15:00
7:35 PM,15.8,1.4,53,30.13,10.0,WSW,4.6,-,N/A,,Clear,250,2013-12-17 00:35:00
7:55 PM,14.0,3.2,62,30.15,10.0,Calm,Calm,-,N/A,,Clear,0,2013-12-17 00:55:00
8:15 PM,15.8,3.2,58,30.15,10.0,WSW,3.5,-,N/A,,Clear,250,2013-12-17 01:15:00
8:35 PM,15.8,3.2,58,30.15,10.0,West,5.8,-,N/A,,Clear,260,2013-12-17 01:35:00
8:55 PM,14.0,3.2,62,30.16,10.0,WSW,3.5,-,N/A,,Clear,250,2013-12-17 01:55:00
9:15 PM,14.0,3.2,62,30.16,10.0,West,5.8,-,N/A,,Clear,270,2013-12-17 02:15:00
9:35 PM,14.0,3.2,62,30.17,10.0,West,5.8,-,N/A,,Clear,270,2013-12-17 02:35:00
9:55 PM,15.8,3.2,58,30.17,10.0,West,5.8,-,N/A,,Clear,270,2013-12-17 02:55:00
10:15 PM,14.0,3.2,62,30.18,10.0,West,3.5,-,N/A,,Clear,260,2013-12-17 03:15:00
10:35 PM,15.8,3.2,58,30.18,10.0,West,6.9,-,N/A,,Clear,270,2013-12-17 03:35:00
10:55 PM,14.0,3.2,62,30.18,10.0,WNW,3.5,-,N/A,,Clear,290,2013-12-17 03:55:00
11:15 PM,12.2,3.2,67,30.18,10.0,West,3.5,-,N/A,,Clear,280,2013-12-17 04:15:00
11:35 PM,12.2,3.2,67,30.19,10.0,West,3.5,-,N/A,,Clear,270,2013-12-17 04:35:00
11:55 PM,12.2,3.2,67,30.19,10.0,Calm,Calm,-,N/A,,Clear,0,2013-12-17 04:55:00